owner,sensor,date,latitude,longitude,vertical_datum,sea_water_temperature,qcFlag 
WAVCIS,ioos:station:WAVCIS:CSI15:1,2011-06-01T00:00:00Z,28.8332,-90.8320,10.0,36.36,11133222 
WAVCIS,ioos:station:WAVCIS:CSI15:1,2011-06-01T01:00:00Z,28.8332,-90.8320,10.0,36.4,11133222 
WAVCIS,ioos:station:WAVCIS:CSI15:1,2011-06-01T02:00:00Z,28.8332,-90.8320,10.0,36.02,11133222 
WAVCIS,ioos:station:WAVCIS:CSI15:1,2011-06-01T03:00:00Z,28.8332,-90.8320,10.0,36.01,11133222 
WAVCIS,ioos:station:WAVCIS:CSI15:1,2011-06-01T04:00:00Z,28.8332,-90.8320,10.0,36.47,11133222 
WAVCIS,ioos:station:WAVCIS:CSI15:1,2011-06-01T05:00:00Z,28.8332,-90.8320,10.0,35.97,11133222 
WAVCIS,ioos:station:WAVCIS:CSI15:1,2011-06-01T06:00:00Z,28.8332,-90.8320,10.0,36.07,11133222 
WAVCIS,ioos:station:WAVCIS:CSI15:1,2011-06-01T07:00:00Z,28.8332,-90.8320,10.0,36.3,11133222 
WAVCIS,ioos:station:WAVCIS:CSI15:1,2011-06-01T08:00:00Z,28.8332,-90.8320,10.0,36.49,11133222 
WAVCIS,ioos:station:WAVCIS:CSI15:1,2011-06-01T09:00:00Z,28.8332,-90.8320,10.0,36.43,11133222 
WAVCIS,ioos:station:WAVCIS:CSI15:1,2011-06-01T10:00:00Z,28.8332,-90.8320,10.0,36.77,11133222 
WAVCIS,ioos:station:WAVCIS:CSI15:1,2011-06-01T11:00:00Z,28.8332,-90.8320,10.0,36.92,11133222 
WAVCIS,ioos:station:WAVCIS:CSI15:1,2011-06-01T12:00:00Z,28.8332,-90.8320,10.0,36.97,11133222 
WAVCIS,ioos:station:WAVCIS:CSI15:1,2011-06-01T13:00:00Z,28.8332,-90.8320,10.0,36.98,11133222 
WAVCIS,ioos:station:WAVCIS:CSI15:1,2011-06-01T14:00:00Z,28.8332,-90.8320,10.0,36.96,11133222 
WAVCIS,ioos:station:WAVCIS:CSI15:1,2011-06-01T15:00:00Z,28.8332,-90.8320,10.0,36.94,11133222 
WAVCIS,ioos:station:WAVCIS:CSI15:1,2011-06-01T16:00:00Z,28.8332,-90.8320,10.0,37.01,11133222 
WAVCIS,ioos:station:WAVCIS:CSI15:1,2011-06-01T17:00:00Z,28.8332,-90.8320,10.0,37.12,11133222 
WAVCIS,ioos:station:WAVCIS:CSI15:1,2011-06-01T18:00:00Z,28.8332,-90.8320,10.0,37.24,11133222 
WAVCIS,ioos:station:WAVCIS:CSI15:1,2011-06-01T19:00:00Z,28.8332,-90.8320,10.0,37.29,11133222 
WAVCIS,ioos:station:WAVCIS:CSI15:1,2011-06-01T20:00:00Z,28.8332,-90.8320,10.0,37.17,11133222 
WAVCIS,ioos:station:WAVCIS:CSI15:1,2011-06-01T21:00:00Z,28.8332,-90.8320,10.0,37.06,11133222 
WAVCIS,ioos:station:WAVCIS:CSI15:1,2011-06-01T22:00:00Z,28.8332,-90.8320,10.0,37.12,11133222 
WAVCIS,ioos:station:WAVCIS:CSI15:1,2011-06-01T23:00:00Z,28.8332,-90.8320,10.0,37.16,11133222 
WAVCIS,ioos:station:WAVCIS:CSI15:1,2011-06-02T00:00:00Z,28.8332,-90.8320,10.0,37.14,11133222 
WAVCIS,ioos:station:WAVCIS:CSI15:1,2011-06-02T01:00:00Z,28.8332,-90.8320,10.0,37.03,11133222 
WAVCIS,ioos:station:WAVCIS:CSI15:1,2011-06-02T02:00:00Z,28.8332,-90.8320,10.0,36.99,11133222 
WAVCIS,ioos:station:WAVCIS:CSI15:1,2011-06-02T03:00:00Z,28.8332,-90.8320,10.0,36.69,11133222 
WAVCIS,ioos:station:WAVCIS:CSI15:1,2011-06-02T04:00:00Z,28.8332,-90.8320,10.0,36.72,11133222 
WAVCIS,ioos:station:WAVCIS:CSI15:1,2011-06-02T05:00:00Z,28.8332,-90.8320,10.0,36.97,11133222 
WAVCIS,ioos:station:WAVCIS:CSI15:1,2011-06-02T06:00:00Z,28.8332,-90.8320,10.0,36.96,11133222 
WAVCIS,ioos:station:WAVCIS:CSI15:1,2011-06-02T07:00:00Z,28.8332,-90.8320,10.0,37.07,11133222 
WAVCIS,ioos:station:WAVCIS:CSI15:1,2011-06-02T08:00:00Z,28.8332,-90.8320,10.0,37.14,11133222 
WAVCIS,ioos:station:WAVCIS:CSI15:1,2011-06-02T09:00:00Z,28.8332,-90.8320,10.0,37.21,11133222 
WAVCIS,ioos:station:WAVCIS:CSI15:1,2011-06-02T10:00:00Z,28.8332,-90.8320,10.0,37.23,11133222 
WAVCIS,ioos:station:WAVCIS:CSI15:1,2011-06-02T11:00:00Z,28.8332,-90.8320,10.0,37.25,11133222 
WAVCIS,ioos:station:WAVCIS:CSI15:1,2011-06-02T12:00:00Z,28.8332,-90.8320,10.0,37.18,11133222 
WAVCIS,ioos:station:WAVCIS:CSI15:1,2011-06-02T13:00:00Z,28.8332,-90.8320,10.0,37.16,11133222 
WAVCIS,ioos:station:WAVCIS:CSI15:1,2011-06-02T14:00:00Z,28.8332,-90.8320,10.0,37.19,11133222 
WAVCIS,ioos:station:WAVCIS:CSI15:1,2011-06-02T15:00:00Z,28.8332,-90.8320,10.0,37.22,11133222 
WAVCIS,ioos:station:WAVCIS:CSI15:1,2011-06-02T16:00:00Z,28.8332,-90.8320,10.0,37.24,11133222 
WAVCIS,ioos:station:WAVCIS:CSI15:1,2011-06-02T17:00:00Z,28.8332,-90.8320,10.0,37.27,11133222 
WAVCIS,ioos:station:WAVCIS:CSI15:1,2011-06-02T18:00:00Z,28.8332,-90.8320,10.0,37.24,11133222 
WAVCIS,ioos:station:WAVCIS:CSI15:1,2011-06-02T19:00:00Z,28.8332,-90.8320,10.0,37.35,11133222 
WAVCIS,ioos:station:WAVCIS:CSI15:1,2011-06-02T20:00:00Z,28.8332,-90.8320,10.0,37.3,11133222 
WAVCIS,ioos:station:WAVCIS:CSI15:1,2011-06-02T21:00:00Z,28.8332,-90.8320,10.0,37.3,11133222 
WAVCIS,ioos:station:WAVCIS:CSI15:1,2011-06-02T22:00:00Z,28.8332,-90.8320,10.0,37.38,11133222 
WAVCIS,ioos:station:WAVCIS:CSI15:1,2011-06-02T23:00:00Z,28.8332,-90.8320,10.0,37.44,11133222 
WAVCIS,ioos:station:WAVCIS:CSI15:1,2011-06-03T00:00:00Z,28.8332,-90.8320,10.0,37.44,11133222 
WAVCIS,ioos:station:WAVCIS:CSI15:1,2011-06-03T01:00:00Z,28.8332,-90.8320,10.0,37.49,11133222 
WAVCIS,ioos:station:WAVCIS:CSI15:1,2011-06-03T02:00:00Z,28.8332,-90.8320,10.0,37.47,11133222 
WAVCIS,ioos:station:WAVCIS:CSI15:1,2011-06-03T03:00:00Z,28.8332,-90.8320,10.0,37.44,11133222 
WAVCIS,ioos:station:WAVCIS:CSI15:1,2011-06-03T04:00:00Z,28.8332,-90.8320,10.0,37.3,11133222 
WAVCIS,ioos:station:WAVCIS:CSI15:1,2011-06-03T05:00:00Z,28.8332,-90.8320,10.0,37.18,11133222 
WAVCIS,ioos:station:WAVCIS:CSI15:1,2011-06-03T06:00:00Z,28.8332,-90.8320,10.0,37.04,11133222 
WAVCIS,ioos:station:WAVCIS:CSI15:1,2011-06-03T07:00:00Z,28.8332,-90.8320,10.0,37.09,11133222 
WAVCIS,ioos:station:WAVCIS:CSI15:1,2011-06-03T08:00:00Z,28.8332,-90.8320,10.0,37.08,11133222 
WAVCIS,ioos:station:WAVCIS:CSI15:1,2011-06-03T09:00:00Z,28.8332,-90.8320,10.0,37.07,11133222 
WAVCIS,ioos:station:WAVCIS:CSI15:1,2011-06-03T10:00:00Z,28.8332,-90.8320,10.0,36.99,11133222 
WAVCIS,ioos:station:WAVCIS:CSI15:1,2011-06-03T11:00:00Z,28.8332,-90.8320,10.0,36.99,11133222 
WAVCIS,ioos:station:WAVCIS:CSI15:1,2011-06-03T12:00:00Z,28.8332,-90.8320,10.0,36.96,11133222 
WAVCIS,ioos:station:WAVCIS:CSI15:1,2011-06-03T13:00:00Z,28.8332,-90.8320,10.0,36.9,11133222 
WAVCIS,ioos:station:WAVCIS:CSI15:1,2011-06-03T14:00:00Z,28.8332,-90.8320,10.0,36.91,11133222 
WAVCIS,ioos:station:WAVCIS:CSI15:1,2011-06-03T15:00:00Z,28.8332,-90.8320,10.0,36.86,11133222 
WAVCIS,ioos:station:WAVCIS:CSI15:1,2011-06-03T16:00:00Z,28.8332,-90.8320,10.0,36.9,11133222 
WAVCIS,ioos:station:WAVCIS:CSI15:1,2011-06-03T17:00:00Z,28.8332,-90.8320,10.0,37.08,11133222 
WAVCIS,ioos:station:WAVCIS:CSI15:1,2011-06-03T18:00:00Z,28.8332,-90.8320,10.0,37.12,11133222 
WAVCIS,ioos:station:WAVCIS:CSI15:1,2011-06-03T19:00:00Z,28.8332,-90.8320,10.0,37.03,11133222 
WAVCIS,ioos:station:WAVCIS:CSI15:1,2011-06-03T20:00:00Z,28.8332,-90.8320,10.0,37.26,11133222 
WAVCIS,ioos:station:WAVCIS:CSI15:1,2011-06-03T21:00:00Z,28.8332,-90.8320,10.0,37.44,11133222 
WAVCIS,ioos:station:WAVCIS:CSI15:1,2011-06-03T22:00:00Z,28.8332,-90.8320,10.0,37.65,11133222 
WAVCIS,ioos:station:WAVCIS:CSI15:1,2011-06-03T23:00:00Z,28.8332,-90.8320,10.0,37.79,11133222 
WAVCIS,ioos:station:WAVCIS:CSI15:1,2011-06-04T00:00:00Z,28.8332,-90.8320,10.0,37.83,11133222 
WAVCIS,ioos:station:WAVCIS:CSI15:1,2011-06-04T01:00:00Z,28.8332,-90.8320,10.0,37.82,11133222 
WAVCIS,ioos:station:WAVCIS:CSI15:1,2011-06-04T02:00:00Z,28.8332,-90.8320,10.0,37.72,11133222 
WAVCIS,ioos:station:WAVCIS:CSI15:1,2011-06-04T03:00:00Z,28.8332,-90.8320,10.0,37.72,11133222 
WAVCIS,ioos:station:WAVCIS:CSI15:1,2011-06-04T04:00:00Z,28.8332,-90.8320,10.0,37.6,11133222 
WAVCIS,ioos:station:WAVCIS:CSI15:1,2011-06-04T05:00:00Z,28.8332,-90.8320,10.0,37.47,11133222 
WAVCIS,ioos:station:WAVCIS:CSI15:1,2011-06-04T06:00:00Z,28.8332,-90.8320,10.0,37.34,11133222 
WAVCIS,ioos:station:WAVCIS:CSI15:1,2011-06-04T07:00:00Z,28.8332,-90.8320,10.0,37.24,11133222 
WAVCIS,ioos:station:WAVCIS:CSI15:1,2011-06-04T08:00:00Z,28.8332,-90.8320,10.0,37.21,11133222 
WAVCIS,ioos:station:WAVCIS:CSI15:1,2011-06-04T09:00:00Z,28.8332,-90.8320,10.0,37.28,11133222 
WAVCIS,ioos:station:WAVCIS:CSI15:1,2011-06-04T10:00:00Z,28.8332,-90.8320,10.0,37.25,11133222 
WAVCIS,ioos:station:WAVCIS:CSI15:1,2011-06-04T11:00:00Z,28.8332,-90.8320,10.0,37.23,11133222 
WAVCIS,ioos:station:WAVCIS:CSI15:1,2011-06-04T12:00:00Z,28.8332,-90.8320,10.0,37.27,11133222 
WAVCIS,ioos:station:WAVCIS:CSI15:1,2011-06-04T13:00:00Z,28.8332,-90.8320,10.0,37.35,11133222 
WAVCIS,ioos:station:WAVCIS:CSI15:1,2011-06-04T14:00:00Z,28.8332,-90.8320,10.0,37.43,11133222 
WAVCIS,ioos:station:WAVCIS:CSI15:1,2011-06-04T15:00:00Z,28.8332,-90.8320,10.0,37.47,11133222 
WAVCIS,ioos:station:WAVCIS:CSI15:1,2011-06-04T16:00:00Z,28.8332,-90.8320,10.0,37.49,11133222 
WAVCIS,ioos:station:WAVCIS:CSI15:1,2011-06-04T17:00:00Z,28.8332,-90.8320,10.0,37.57,11133222 
WAVCIS,ioos:station:WAVCIS:CSI15:1,2011-06-04T18:00:00Z,28.8332,-90.8320,10.0,37.57,11133222 
WAVCIS,ioos:station:WAVCIS:CSI15:1,2011-06-04T19:00:00Z,28.8332,-90.8320,10.0,37.62,11133222 
WAVCIS,ioos:station:WAVCIS:CSI15:1,2011-06-04T20:00:00Z,28.8332,-90.8320,10.0,37.64,11133222 
WAVCIS,ioos:station:WAVCIS:CSI15:1,2011-06-04T21:00:00Z,28.8332,-90.8320,10.0,37.6,11133222 
WAVCIS,ioos:station:WAVCIS:CSI15:1,2011-06-04T22:00:00Z,28.8332,-90.8320,10.0,37.57,11133222 
WAVCIS,ioos:station:WAVCIS:CSI15:1,2011-06-04T23:00:00Z,28.8332,-90.8320,10.0,37.56,11133222 
WAVCIS,ioos:station:WAVCIS:CSI15:1,2011-06-05T00:00:00Z,28.8332,-90.8320,10.0,37.62,11133222 
WAVCIS,ioos:station:WAVCIS:CSI15:1,2011-06-05T01:00:00Z,28.8332,-90.8320,10.0,37.66,11133222 
WAVCIS,ioos:station:WAVCIS:CSI15:1,2011-06-05T02:00:00Z,28.8332,-90.8320,10.0,37.67,11133222 
WAVCIS,ioos:station:WAVCIS:CSI15:1,2011-06-05T03:00:00Z,28.8332,-90.8320,10.0,37.64,11133222 
WAVCIS,ioos:station:WAVCIS:CSI15:1,2011-06-05T04:00:00Z,28.8332,-90.8320,10.0,37.68,11133222 
WAVCIS,ioos:station:WAVCIS:CSI15:1,2011-06-05T05:00:00Z,28.8332,-90.8320,10.0,37.59,11133222 
WAVCIS,ioos:station:WAVCIS:CSI15:1,2011-06-05T06:00:00Z,28.8332,-90.8320,10.0,37.62,11133222 
WAVCIS,ioos:station:WAVCIS:CSI15:1,2011-06-05T07:00:00Z,28.8332,-90.8320,10.0,37.6,11133222 
WAVCIS,ioos:station:WAVCIS:CSI15:1,2011-06-05T08:00:00Z,28.8332,-90.8320,10.0,37.55,11133222 
WAVCIS,ioos:station:WAVCIS:CSI15:1,2011-06-05T09:00:00Z,28.8332,-90.8320,10.0,37.57,11133222 
WAVCIS,ioos:station:WAVCIS:CSI15:1,2011-06-05T10:00:00Z,28.8332,-90.8320,10.0,37.49,11133222 
WAVCIS,ioos:station:WAVCIS:CSI15:1,2011-06-05T11:00:00Z,28.8332,-90.8320,10.0,37.47,11133222 
WAVCIS,ioos:station:WAVCIS:CSI15:1,2011-06-05T12:00:00Z,28.8332,-90.8320,10.0,37.39,11133222 
WAVCIS,ioos:station:WAVCIS:CSI15:1,2011-06-05T13:00:00Z,28.8332,-90.8320,10.0,37.44,11133222 
WAVCIS,ioos:station:WAVCIS:CSI15:1,2011-06-05T14:00:00Z,28.8332,-90.8320,10.0,37.48,11133222 
WAVCIS,ioos:station:WAVCIS:CSI15:1,2011-06-05T15:00:00Z,28.8332,-90.8320,10.0,37.37,11133222 
WAVCIS,ioos:station:WAVCIS:CSI15:1,2011-06-05T16:00:00Z,28.8332,-90.8320,10.0,37.41,11133222 
WAVCIS,ioos:station:WAVCIS:CSI15:1,2011-06-05T17:00:00Z,28.8332,-90.8320,10.0,37.25,11133222 
WAVCIS,ioos:station:WAVCIS:CSI15:1,2011-06-05T18:00:00Z,28.8332,-90.8320,10.0,37.54,11133222 
WAVCIS,ioos:station:WAVCIS:CSI15:1,2011-06-05T19:00:00Z,28.8332,-90.8320,10.0,37.87,11133222 
WAVCIS,ioos:station:WAVCIS:CSI15:1,2011-06-05T20:00:00Z,28.8332,-90.8320,10.0,38.01,11133222 
WAVCIS,ioos:station:WAVCIS:CSI15:1,2011-06-05T21:00:00Z,28.8332,-90.8320,10.0,38.09,11133222 
WAVCIS,ioos:station:WAVCIS:CSI15:1,2011-06-05T22:00:00Z,28.8332,-90.8320,10.0,38.11,11133222 
WAVCIS,ioos:station:WAVCIS:CSI15:1,2011-06-05T23:00:00Z,28.8332,-90.8320,10.0,38.03,11133222 
WAVCIS,ioos:station:WAVCIS:CSI15:1,2011-06-06T00:00:00Z,28.8332,-90.8320,10.0,38.16,11133222 
WAVCIS,ioos:station:WAVCIS:CSI15:1,2011-06-06T01:00:00Z,28.8332,-90.8320,10.0,38.09,11133222 
WAVCIS,ioos:station:WAVCIS:CSI15:1,2011-06-06T02:00:00Z,28.8332,-90.8320,10.0,37.97,11133222 
WAVCIS,ioos:station:WAVCIS:CSI15:1,2011-06-06T03:00:00Z,28.8332,-90.8320,10.0,37.94,11133222 
WAVCIS,ioos:station:WAVCIS:CSI15:1,2011-06-06T04:00:00Z,28.8332,-90.8320,10.0,37.85,11133222 
WAVCIS,ioos:station:WAVCIS:CSI15:1,2011-06-06T05:00:00Z,28.8332,-90.8320,10.0,37.7,11133222 
WAVCIS,ioos:station:WAVCIS:CSI15:1,2011-06-06T06:00:00Z,28.8332,-90.8320,10.0,37.32,11133222 
WAVCIS,ioos:station:WAVCIS:CSI15:1,2011-06-06T07:00:00Z,28.8332,-90.8320,10.0,37.18,11133222 
WAVCIS,ioos:station:WAVCIS:CSI15:1,2011-06-06T08:00:00Z,28.8332,-90.8320,10.0,37.16,11133222 
WAVCIS,ioos:station:WAVCIS:CSI15:1,2011-06-06T09:00:00Z,28.8332,-90.8320,10.0,37.15,11133222 
WAVCIS,ioos:station:WAVCIS:CSI15:1,2011-06-06T10:00:00Z,28.8332,-90.8320,10.0,37.13,11133222 
WAVCIS,ioos:station:WAVCIS:CSI15:1,2011-06-06T11:00:00Z,28.8332,-90.8320,10.0,37.19,11133222 
WAVCIS,ioos:station:WAVCIS:CSI15:1,2011-06-06T12:00:00Z,28.8332,-90.8320,10.0,37.01,11133222 
WAVCIS,ioos:station:WAVCIS:CSI15:1,2011-06-06T13:00:00Z,28.8332,-90.8320,10.0,37.11,11133222 
WAVCIS,ioos:station:WAVCIS:CSI15:1,2011-06-06T14:00:00Z,28.8332,-90.8320,10.0,37.18,11133222 
WAVCIS,ioos:station:WAVCIS:CSI15:1,2011-06-06T15:00:00Z,28.8332,-90.8320,10.0,37.19,11133222 
WAVCIS,ioos:station:WAVCIS:CSI15:1,2011-06-06T16:00:00Z,28.8332,-90.8320,10.0,37.23,11133222 
WAVCIS,ioos:station:WAVCIS:CSI15:1,2011-06-06T17:00:00Z,28.8332,-90.8320,10.0,37.31,11133222 
WAVCIS,ioos:station:WAVCIS:CSI15:1,2011-06-06T18:00:00Z,28.8332,-90.8320,10.0,37.34,11133222 
WAVCIS,ioos:station:WAVCIS:CSI15:1,2011-06-06T19:00:00Z,28.8332,-90.8320,10.0,37.43,11133222 
WAVCIS,ioos:station:WAVCIS:CSI15:1,2011-06-06T20:00:00Z,28.8332,-90.8320,10.0,37.52,11133222 
WAVCIS,ioos:station:WAVCIS:CSI15:1,2011-06-06T21:00:00Z,28.8332,-90.8320,10.0,37.68,11133222 
WAVCIS,ioos:station:WAVCIS:CSI15:1,2011-06-06T22:00:00Z,28.8332,-90.8320,10.0,37.7,11133222 
WAVCIS,ioos:station:WAVCIS:CSI15:1,2011-06-06T23:00:00Z,28.8332,-90.8320,10.0,37.64,11133222 
WAVCIS,ioos:station:WAVCIS:CSI15:1,2011-06-07T00:00:00Z,28.8332,-90.8320,10.0,37.44,11133222 
WAVCIS,ioos:station:WAVCIS:CSI15:1,2011-06-07T01:00:00Z,28.8332,-90.8320,10.0,37.42,11133222 
WAVCIS,ioos:station:WAVCIS:CSI15:1,2011-06-07T02:00:00Z,28.8332,-90.8320,10.0,37.52,11133222 
WAVCIS,ioos:station:WAVCIS:CSI15:1,2011-06-07T03:00:00Z,28.8332,-90.8320,10.0,37.44,11133222 
WAVCIS,ioos:station:WAVCIS:CSI15:1,2011-06-07T04:00:00Z,28.8332,-90.8320,10.0,37.49,11133222 
WAVCIS,ioos:station:WAVCIS:CSI15:1,2011-06-07T05:00:00Z,28.8332,-90.8320,10.0,37.53,11133222 
WAVCIS,ioos:station:WAVCIS:CSI15:1,2011-06-07T06:00:00Z,28.8332,-90.8320,10.0,37.55,11133222 
WAVCIS,ioos:station:WAVCIS:CSI15:1,2011-06-07T07:00:00Z,28.8332,-90.8320,10.0,37.55,11133222 
WAVCIS,ioos:station:WAVCIS:CSI15:1,2011-06-07T08:00:00Z,28.8332,-90.8320,10.0,37.42,11133222 
WAVCIS,ioos:station:WAVCIS:CSI15:1,2011-06-07T09:00:00Z,28.8332,-90.8320,10.0,37.49,11133222 
WAVCIS,ioos:station:WAVCIS:CSI15:1,2011-06-07T10:00:00Z,28.8332,-90.8320,10.0,37.44,11133222 
WAVCIS,ioos:station:WAVCIS:CSI15:1,2011-06-07T11:00:00Z,28.8332,-90.8320,10.0,37.43,11133222 
WAVCIS,ioos:station:WAVCIS:CSI15:1,2011-06-07T12:00:00Z,28.8332,-90.8320,10.0,37.55,11133222 
WAVCIS,ioos:station:WAVCIS:CSI15:1,2011-06-07T13:00:00Z,28.8332,-90.8320,10.0,37.54,11133222 
WAVCIS,ioos:station:WAVCIS:CSI15:1,2011-06-07T14:00:00Z,28.8332,-90.8320,10.0,37.55,11133222 
WAVCIS,ioos:station:WAVCIS:CSI15:1,2011-06-07T15:00:00Z,28.8332,-90.8320,10.0,37.62,11133222 
WAVCIS,ioos:station:WAVCIS:CSI15:1,2011-06-07T16:00:00Z,28.8332,-90.8320,10.0,37.4,11133222 
WAVCIS,ioos:station:WAVCIS:CSI15:1,2011-06-07T17:00:00Z,28.8332,-90.8320,10.0,37.65,11133222 
WAVCIS,ioos:station:WAVCIS:CSI15:1,2011-06-07T18:00:00Z,28.8332,-90.8320,10.0,37.52,11133222 
WAVCIS,ioos:station:WAVCIS:CSI15:1,2011-06-07T19:00:00Z,28.8332,-90.8320,10.0,37.55,11133222 
WAVCIS,ioos:station:WAVCIS:CSI15:1,2011-06-07T20:00:00Z,28.8332,-90.8320,10.0,37.42,11133222 
WAVCIS,ioos:station:WAVCIS:CSI15:1,2011-06-07T21:00:00Z,28.8332,-90.8320,10.0,37.41,11133222 
WAVCIS,ioos:station:WAVCIS:CSI15:1,2011-06-07T22:00:00Z,28.8332,-90.8320,10.0,37.47,11133222 
WAVCIS,ioos:station:WAVCIS:CSI15:1,2011-06-07T23:00:00Z,28.8332,-90.8320,10.0,37.53,11133222 
WAVCIS,ioos:station:WAVCIS:CSI15:1,2011-06-08T00:00:00Z,28.8332,-90.8320,10.0,37.6,11133222 
WAVCIS,ioos:station:WAVCIS:CSI15:1,2011-06-08T01:00:00Z,28.8332,-90.8320,10.0,37.64,11133222 
WAVCIS,ioos:station:WAVCIS:CSI15:1,2011-06-08T02:00:00Z,28.8332,-90.8320,10.0,37.65,11133222 
WAVCIS,ioos:station:WAVCIS:CSI15:1,2011-06-08T03:00:00Z,28.8332,-90.8320,10.0,37.51,11133222 
WAVCIS,ioos:station:WAVCIS:CSI15:1,2011-06-08T04:00:00Z,28.8332,-90.8320,10.0,37.51,11133222 
WAVCIS,ioos:station:WAVCIS:CSI15:1,2011-06-08T05:00:00Z,28.8332,-90.8320,10.0,37.58,11133222 
WAVCIS,ioos:station:WAVCIS:CSI15:1,2011-06-08T06:00:00Z,28.8332,-90.8320,10.0,37.62,11133222 
WAVCIS,ioos:station:WAVCIS:CSI15:1,2011-06-08T07:00:00Z,28.8332,-90.8320,10.0,37.68,11133222 
WAVCIS,ioos:station:WAVCIS:CSI15:1,2011-06-08T08:00:00Z,28.8332,-90.8320,10.0,37.63,11133222 
WAVCIS,ioos:station:WAVCIS:CSI15:1,2011-06-08T09:00:00Z,28.8332,-90.8320,10.0,37.5,11133222 
WAVCIS,ioos:station:WAVCIS:CSI15:1,2011-06-08T10:00:00Z,28.8332,-90.8320,10.0,37.32,11133222 
WAVCIS,ioos:station:WAVCIS:CSI15:1,2011-06-08T11:00:00Z,28.8332,-90.8320,10.0,36.86,11133222 
WAVCIS,ioos:station:WAVCIS:CSI15:1,2011-06-08T12:00:00Z,28.8332,-90.8320,10.0,37.11,11133222 
WAVCIS,ioos:station:WAVCIS:CSI15:1,2011-06-08T13:00:00Z,28.8332,-90.8320,10.0,37.36,11133222 
WAVCIS,ioos:station:WAVCIS:CSI15:1,2011-06-08T14:00:00Z,28.8332,-90.8320,10.0,37.42,11133222 
WAVCIS,ioos:station:WAVCIS:CSI15:1,2011-06-08T15:00:00Z,28.8332,-90.8320,10.0,36.88,11133222 
WAVCIS,ioos:station:WAVCIS:CSI15:1,2011-06-08T16:00:00Z,28.8332,-90.8320,10.0,35.98,11133222 
WAVCIS,ioos:station:WAVCIS:CSI15:1,2011-06-08T17:00:00Z,28.8332,-90.8320,10.0,35.34,11133222 
WAVCIS,ioos:station:WAVCIS:CSI15:1,2011-06-08T18:00:00Z,28.8332,-90.8320,10.0,35.66,11133222 
WAVCIS,ioos:station:WAVCIS:CSI15:1,2011-06-08T19:00:00Z,28.8332,-90.8320,10.0,35.64,11133222 
WAVCIS,ioos:station:WAVCIS:CSI15:1,2011-06-08T20:00:00Z,28.8332,-90.8320,10.0,35.55,11133222 
WAVCIS,ioos:station:WAVCIS:CSI15:1,2011-06-08T21:00:00Z,28.8332,-90.8320,10.0,35.35,11133222 
WAVCIS,ioos:station:WAVCIS:CSI15:1,2011-06-08T22:00:00Z,28.8332,-90.8320,10.0,35.37,11133222 
WAVCIS,ioos:station:WAVCIS:CSI15:1,2011-06-08T23:00:00Z,28.8332,-90.8320,10.0,35.25,11133222 
WAVCIS,ioos:station:WAVCIS:CSI15:1,2011-06-09T00:00:00Z,28.8332,-90.8320,10.0,35.02,11133222 
WAVCIS,ioos:station:WAVCIS:CSI15:1,2011-06-09T01:00:00Z,28.8332,-90.8320,10.0,35.2,11133222 
WAVCIS,ioos:station:WAVCIS:CSI15:1,2011-06-09T02:00:00Z,28.8332,-90.8320,10.0,35.12,11133222 
WAVCIS,ioos:station:WAVCIS:CSI15:1,2011-06-09T03:00:00Z,28.8332,-90.8320,10.0,35.4,11133222 
WAVCIS,ioos:station:WAVCIS:CSI15:1,2011-06-09T04:00:00Z,28.8332,-90.8320,10.0,35.55,11133222 
WAVCIS,ioos:station:WAVCIS:CSI15:1,2011-06-09T05:00:00Z,28.8332,-90.8320,10.0,35.39,11133222 
WAVCIS,ioos:station:WAVCIS:CSI15:1,2011-06-09T06:00:00Z,28.8332,-90.8320,10.0,35.37,11133222 
WAVCIS,ioos:station:WAVCIS:CSI15:1,2011-06-09T07:00:00Z,28.8332,-90.8320,10.0,35.43,11133222 
WAVCIS,ioos:station:WAVCIS:CSI15:1,2011-06-09T08:00:00Z,28.8332,-90.8320,10.0,35.44,11133222 
WAVCIS,ioos:station:WAVCIS:CSI15:1,2011-06-09T09:00:00Z,28.8332,-90.8320,10.0,35.11,11133222 
WAVCIS,ioos:station:WAVCIS:CSI15:1,2011-06-09T10:00:00Z,28.8332,-90.8320,10.0,35.06,11133222 
WAVCIS,ioos:station:WAVCIS:CSI15:1,2011-06-09T11:00:00Z,28.8332,-90.8320,10.0,35.06,11133222 
WAVCIS,ioos:station:WAVCIS:CSI15:1,2011-06-09T12:00:00Z,28.8332,-90.8320,10.0,35.03,11133222 
WAVCIS,ioos:station:WAVCIS:CSI15:1,2011-06-09T13:00:00Z,28.8332,-90.8320,10.0,35.06,11133222 
WAVCIS,ioos:station:WAVCIS:CSI15:1,2011-06-09T14:00:00Z,28.8332,-90.8320,10.0,35.16,11133222 
WAVCIS,ioos:station:WAVCIS:CSI15:1,2011-06-09T15:00:00Z,28.8332,-90.8320,10.0,35.08,11133222 
WAVCIS,ioos:station:WAVCIS:CSI15:1,2011-06-09T16:00:00Z,28.8332,-90.8320,10.0,35.32,11133222 
WAVCIS,ioos:station:WAVCIS:CSI15:1,2011-06-09T17:00:00Z,28.8332,-90.8320,10.0,35.4,11133222 
WAVCIS,ioos:station:WAVCIS:CSI15:1,2011-06-09T18:00:00Z,28.8332,-90.8320,10.0,35.5,11133222 
WAVCIS,ioos:station:WAVCIS:CSI15:1,2011-06-09T19:00:00Z,28.8332,-90.8320,10.0,35.45,11133222 
WAVCIS,ioos:station:WAVCIS:CSI15:1,2011-06-09T20:00:00Z,28.8332,-90.8320,10.0,35.45,11133222 
WAVCIS,ioos:station:WAVCIS:CSI15:1,2011-06-09T21:00:00Z,28.8332,-90.8320,10.0,35.44,11133222 
WAVCIS,ioos:station:WAVCIS:CSI15:1,2011-06-09T22:00:00Z,28.8332,-90.8320,10.0,35.39,11133222 
WAVCIS,ioos:station:WAVCIS:CSI15:1,2011-06-09T23:00:00Z,28.8332,-90.8320,10.0,35.28,11133222 
WAVCIS,ioos:station:WAVCIS:CSI15:1,2011-06-10T00:00:00Z,28.8332,-90.8320,10.0,35.34,11133222 
WAVCIS,ioos:station:WAVCIS:CSI15:1,2011-06-10T01:00:00Z,28.8332,-90.8320,10.0,35.37,11133222 
WAVCIS,ioos:station:WAVCIS:CSI15:1,2011-06-10T02:00:00Z,28.8332,-90.8320,10.0,35.44,11133222 
WAVCIS,ioos:station:WAVCIS:CSI15:1,2011-06-10T03:00:00Z,28.8332,-90.8320,10.0,35.41,11133222 
WAVCIS,ioos:station:WAVCIS:CSI15:1,2011-06-10T04:00:00Z,28.8332,-90.8320,10.0,35.29,11133222 
WAVCIS,ioos:station:WAVCIS:CSI15:1,2011-06-10T05:00:00Z,28.8332,-90.8320,10.0,35.35,11133222 
WAVCIS,ioos:station:WAVCIS:CSI15:1,2011-06-10T06:00:00Z,28.8332,-90.8320,10.0,35.31,11133222 
WAVCIS,ioos:station:WAVCIS:CSI15:1,2011-06-10T07:00:00Z,28.8332,-90.8320,10.0,35.41,11133222 
WAVCIS,ioos:station:WAVCIS:CSI15:1,2011-06-10T08:00:00Z,28.8332,-90.8320,10.0,35.54,11133222 
WAVCIS,ioos:station:WAVCIS:CSI15:1,2011-06-10T09:00:00Z,28.8332,-90.8320,10.0,35.62,11133222 
WAVCIS,ioos:station:WAVCIS:CSI15:1,2011-06-10T10:00:00Z,28.8332,-90.8320,10.0,35.64,11133222 
WAVCIS,ioos:station:WAVCIS:CSI15:1,2011-06-10T11:00:00Z,28.8332,-90.8320,10.0,35.57,11133222 
WAVCIS,ioos:station:WAVCIS:CSI15:1,2011-06-10T12:00:00Z,28.8332,-90.8320,10.0,35.49,11133222 
WAVCIS,ioos:station:WAVCIS:CSI15:1,2011-06-10T13:00:00Z,28.8332,-90.8320,10.0,35.56,11133222 
WAVCIS,ioos:station:WAVCIS:CSI15:1,2011-06-10T14:00:00Z,28.8332,-90.8320,10.0,35.57,11133222 
WAVCIS,ioos:station:WAVCIS:CSI15:1,2011-06-10T15:00:00Z,28.8332,-90.8320,10.0,35.6,11133222 
WAVCIS,ioos:station:WAVCIS:CSI15:1,2011-06-10T16:00:00Z,28.8332,-90.8320,10.0,35.66,11133222 
WAVCIS,ioos:station:WAVCIS:CSI15:1,2011-06-10T17:00:00Z,28.8332,-90.8320,10.0,35.7,11133222 
WAVCIS,ioos:station:WAVCIS:CSI15:1,2011-06-10T18:00:00Z,28.8332,-90.8320,10.0,35.86,11133222 
WAVCIS,ioos:station:WAVCIS:CSI15:1,2011-06-10T19:00:00Z,28.8332,-90.8320,10.0,35.96,11133222 
WAVCIS,ioos:station:WAVCIS:CSI15:1,2011-06-10T20:00:00Z,28.8332,-90.8320,10.0,36.16,11133222 
WAVCIS,ioos:station:WAVCIS:CSI15:1,2011-06-10T21:00:00Z,28.8332,-90.8320,10.0,36.03,11133222 
WAVCIS,ioos:station:WAVCIS:CSI15:1,2011-06-10T22:00:00Z,28.8332,-90.8320,10.0,36.14,11133222 
WAVCIS,ioos:station:WAVCIS:CSI15:1,2011-06-10T23:00:00Z,28.8332,-90.8320,10.0,36.27,11133222 
WAVCIS,ioos:station:WAVCIS:CSI15:1,2011-06-11T00:00:00Z,28.8332,-90.8320,10.0,36.4,11133222 
WAVCIS,ioos:station:WAVCIS:CSI15:1,2011-06-11T01:00:00Z,28.8332,-90.8320,10.0,36.46,11133222 
WAVCIS,ioos:station:WAVCIS:CSI15:1,2011-06-11T02:00:00Z,28.8332,-90.8320,10.0,36.01,11133222 
WAVCIS,ioos:station:WAVCIS:CSI15:1,2011-06-11T03:00:00Z,28.8332,-90.8320,10.0,36.06,11133222 
WAVCIS,ioos:station:WAVCIS:CSI15:1,2011-06-11T04:00:00Z,28.8332,-90.8320,10.0,35.96,11133222 
WAVCIS,ioos:station:WAVCIS:CSI15:1,2011-06-11T05:00:00Z,28.8332,-90.8320,10.0,35.97,11133222 
WAVCIS,ioos:station:WAVCIS:CSI15:1,2011-06-11T06:00:00Z,28.8332,-90.8320,10.0,35.94,11133222 
WAVCIS,ioos:station:WAVCIS:CSI15:1,2011-06-11T07:00:00Z,28.8332,-90.8320,10.0,36.05,11133222 
WAVCIS,ioos:station:WAVCIS:CSI15:1,2011-06-11T08:00:00Z,28.8332,-90.8320,10.0,35.93,11133222 
WAVCIS,ioos:station:WAVCIS:CSI15:1,2011-06-11T09:00:00Z,28.8332,-90.8320,10.0,35.91,11133222 
WAVCIS,ioos:station:WAVCIS:CSI15:1,2011-06-11T10:00:00Z,28.8332,-90.8320,10.0,35.91,11133222 
WAVCIS,ioos:station:WAVCIS:CSI15:1,2011-06-11T11:00:00Z,28.8332,-90.8320,10.0,35.94,11133222 
WAVCIS,ioos:station:WAVCIS:CSI15:1,2011-06-11T12:00:00Z,28.8332,-90.8320,10.0,35.98,11133222 
WAVCIS,ioos:station:WAVCIS:CSI15:1,2011-06-11T13:00:00Z,28.8332,-90.8320,10.0,35.96,11133222 